When you browse on this site, cookies collect data to enhance your experience and personalize the content and advertising you see.
Visit our Privacy Policy to learn more. By continuing to use the site, you agree to this use of cookies and data.
  • In United Kingdom
  • List of Countries
  • For 7 days
  • Water Temperature
  • Satellite Maps
  • Weather Map
  • Weather Widgets
  • user-avatar
    Login

    Hourly Weather Aberkenfig

    Today, 24 May, Friday

    Time Temperature Precipitation Wind Pressure Humidity
    00:00 +8°C° 0 mm 3 mps 752 mmHg 93%
    01:00 +8°C° 0 mm 3 mps 752 mmHg 94%
    02:00 +8°C° 0 mm 3 mps 753 mmHg 94%
    03:00 +8°C° 0 mm 2 mps 753 mmHg 95%
    04:00 +9°C° 0 mm 2 mps 753 mmHg 94%
    05:00 +9°C° 0 mm 2 mps 753 mmHg 92%
    06:00 +10°C° 0 mm 2 mps 753 mmHg 91%
    07:00 +13°C° 0 mm 2 mps 753 mmHg 86%
    08:00 +15°C° 0 mm 2 mps 753 mmHg 80%
    09:00 +16°C° 0 mm 2 mps 754 mmHg 75%
    10:00 +17°C° 0.1 mm 3 mps 754 mmHg 75%
    11:00 +17°C° 0.1 mm 3 mps 754 mmHg 75%
    12:00 +18°C° 0.1 mm 4 mps 754 mmHg 75%
    13:00 +18°C° 0.3 mm 4 mps 754 mmHg 76%
    14:00 +17°C° 0.3 mm 5 mps 754 mmHg 78%
    15:00 +17°C° 0.3 mm 5 mps 753 mmHg 79%
    16:00 +17°C° 0.2 mm 5 mps 753 mmHg 80%
    17:00 +16°C° 0.2 mm 5 mps 753 mmHg 82%
    18:00 +16°C° 0.2 mm 5 mps 753 mmHg 84%
    19:00 +15°C° 0 mm 4 mps 753 mmHg 87%
    20:00 +13°C° 0 mm 4 mps 754 mmHg 91%
    21:00 +12°C° 0 mm 3 mps 754 mmHg 95%
    22:00 +11°C° 0 mm 3 mps 754 mmHg 95%
    23:00 +12°C° 0 mm 2 mps 754 mmHg 95%

    Tomorrow, 25 May, Saturday

    Time Temperature Precipitation Wind Pressure Humidity
    00:00 +10°C° 0 mm 2 mps 754 mmHg 94%
    01:00 +10°C° 0 mm 2 mps 754 mmHg 94%
    02:00 +11°C° 0 mm 1 mps 754 mmHg 94%
    03:00 +11°C° 0 mm 1 mps 754 mmHg 93%
    04:00 +12°C° 0 mm 1 mps 754 mmHg 93%
    05:00 +12°C° 0 mm 1 mps 754 mmHg 92%
    06:00 +13°C° 0 mm 1 mps 754 mmHg 91%
    07:00 +14°C° 0 mm 2 mps 754 mmHg 87%
    08:00 +16°C° 0 mm 2 mps 754 mmHg 82%
    09:00 +17°C° 0 mm 3 mps 755 mmHg 78%
    10:00 +18°C° 0 mm 3 mps 754 mmHg 75%
    11:00 +19°C° 0 mm 4 mps 754 mmHg 72%
    12:00 +20°C° 0 mm 4 mps 754 mmHg 68%
    13:00 +19°C° 0 mm 5 mps 754 mmHg 71%
    14:00 +19°C° 0 mm 5 mps 754 mmHg 74%
    15:00 +17°C° 0 mm 6 mps 754 mmHg 77%
    16:00 +17°C° 0 mm 6 mps 754 mmHg 79%
    17:00 +16°C° 0 mm 5 mps 753 mmHg 81%
    18:00 +15°C° 0 mm 5 mps 753 mmHg 83%
    19:00 +14°C° 0 mm 5 mps 753 mmHg 88%
    20:00 +14°C° 0 mm 5 mps 753 mmHg 92%
    21:00 +13°C° 0 mm 4 mps 753 mmHg 97%
    22:00 +12°C° 0 mm 4 mps 753 mmHg 97%
    23:00 +12°C° 0 mm 4 mps 753 mmHg 97%

    Day after tomorrow, 26 May, Sunday

    Time Temperature Precipitation Wind Pressure Humidity
    00:00 +12°C° 0 mm 4 mps 753 mmHg 97%
    01:00 +12°C° 0 mm 4 mps 752 mmHg 97%
    02:00 +12°C° 0 mm 4 mps 752 mmHg 97%
    03:00 +13°C° 0 mm 4 mps 752 mmHg 96%
    04:00 +13°C° 0 mm 4 mps 752 mmHg 96%
    05:00 +13°C° 0 mm 4 mps 751 mmHg 95%
    06:00 +13°C° 0 mm 4 mps 751 mmHg 95%
    07:00 +14°C° 0.1 mm 5 mps 751 mmHg 94%
    08:00 +14°C° 0.1 mm 6 mps 750 mmHg 92%
    09:00 +15°C° 0.1 mm 6 mps 750 mmHg 91%
    10:00 +15°C° 0.4 mm 7 mps 750 mmHg 93%
    11:00 +14°C° 0.4 mm 7 mps 750 mmHg 94%
    12:00 +14°C° 0.4 mm 7 mps 750 mmHg 96%
    13:00 +14°C° 0.1 mm 7 mps 749 mmHg 93%
    14:00 +15°C° 0.1 mm 7 mps 749 mmHg 90%
    15:00 +16°C° 0.1 mm 7 mps 749 mmHg 87%
    16:00 +15°C° 0.1 mm 7 mps 749 mmHg 84%
    17:00 +15°C° 0.1 mm 6 mps 749 mmHg 82%
    18:00 +15°C° 0.1 mm 6 mps 749 mmHg 80%
    19:00 +14°C° 0 mm 6 mps 749 mmHg 82%
    20:00 +13°C° 0 mm 6 mps 750 mmHg 84%
    21:00 +10°C° 0 mm 5 mps 750 mmHg 86%
    22:00 +10°C° 0 mm 5 mps 750 mmHg 87%
    23:00 +9°C° 0 mm 5 mps 750 mmHg 88%

    27 May, Monday

    Time Temperature Precipitation Wind Pressure Humidity
    00:00 +9°C° 0 mm 5 mps 750 mmHg 89%
    01:00 +8°C° 0 mm 5 mps 750 mmHg 89%
    02:00 +8°C° 0 mm 5 mps 750 mmHg 90%
    03:00 +7°C° 0 mm 5 mps 750 mmHg 91%
    04:00 +8°C° 0 mm 5 mps 750 mmHg 90%
    05:00 +8°C° 0 mm 5 mps 750 mmHg 89%
    06:00 +9°C° 0 mm 6 mps 750 mmHg 88%
    07:00 +10°C° 0.1 mm 6 mps 750 mmHg 85%
    08:00 +10°C° 0.1 mm 6 mps 750 mmHg 82%
    09:00 +11°C° 0.1 mm 6 mps 750 mmHg 78%
    10:00 +11°C° 0.2 mm 7 mps 749 mmHg 78%
    11:00 +11°C° 0.2 mm 7 mps 749 mmHg 78%
    12:00 +12°C° 0.2 mm 8 mps 749 mmHg 78%
    13:00 +12°C° 0.2 mm 8 mps 748 mmHg 78%
    14:00 +12°C° 0.2 mm 8 mps 748 mmHg 78%
    15:00 +12°C° 0.2 mm 8 mps 748 mmHg 78%
    16:00 +11°C° 0.3 mm 8 mps 747 mmHg 80%
    17:00 +11°C° 0.3 mm 7 mps 747 mmHg 82%
    18:00 +10°C° 0.3 mm 7 mps 747 mmHg 85%
    19:00 +9°C° 0.3 mm 7 mps 746 mmHg 87%
    20:00 +9°C° 0.3 mm 6 mps 746 mmHg 89%
    21:00 +8°C° 0.3 mm 5 mps 746 mmHg 90%
    22:00 +8°C° 0.1 mm 5 mps 746 mmHg 91%
    23:00 +7°C° 0.1 mm 5 mps 746 mmHg 91%

    28 May, Tuesday

    Time Temperature Precipitation Wind Pressure Humidity
    00:00 +7°C° 0.1 mm 5 mps 745 mmHg 91%
    01:00 +7°C° 0.1 mm 5 mps 745 mmHg 92%
    02:00 +7°C° 0.1 mm 5 mps 745 mmHg 92%
    03:00 +7°C° 0.1 mm 5 mps 745 mmHg 93%
    04:00 +7°C° 0 mm 4 mps 746 mmHg 92%
    05:00 +7°C° 0 mm 4 mps 746 mmHg 91%
    06:00 +8°C° 0 mm 4 mps 747 mmHg 90%
    07:00 +8°C° 0 mm 5 mps 747 mmHg 87%
    08:00 +9°C° 0 mm 7 mps 748 mmHg 84%
    09:00 +9°C° 0 mm 8 mps 749 mmHg 81%
    10:00 +10°C° 0 mm 7 mps 750 mmHg 76%
    11:00 +11°C° 0 mm 7 mps 751 mmHg 72%
    12:00 +13°C° 0 mm 6 mps 752 mmHg 67%
    13:00 +13°C° 0.1 mm 6 mps 752 mmHg 67%
    14:00 +13°C° 0.1 mm 5 mps 753 mmHg 66%
    15:00 +13°C° 0.1 mm 5 mps 753 mmHg 66%
    16:00 +13°C° 0.1 mm 5 mps 754 mmHg 67%
    17:00 +12°C° 0.1 mm 5 mps 754 mmHg 68%
    18:00 +12°C° 0.1 mm 5 mps 754 mmHg 70%
    19:00 +9°C° 0 mm 5 mps 755 mmHg 73%
    20:00 +8°C° 0 mm 5 mps 755 mmHg 77%
    21:00 +6°C° 0 mm 4 mps 756 mmHg 81%
    22:00 +6°C° 0 mm 4 mps 756 mmHg 82%
    23:00 +5°C° 0 mm 4 mps 756 mmHg 83%

    29 May, Wednesday

    Time Temperature Precipitation Wind Pressure Humidity
    00:00 +4°C° 0 mm 4 mps 757 mmHg 84%
    01:00 +4°C° 0 mm 3 mps 757 mmHg 85%
    02:00 +4°C° 0 mm 3 mps 757 mmHg 85%
    03:00 +4°C° 0 mm 3 mps 757 mmHg 86%
    04:00 +6°C° 0 mm 2 mps 757 mmHg 85%
    05:00 +7°C° 0 mm 2 mps 757 mmHg 83%
    06:00 +8°C° 0 mm 2 mps 758 mmHg 82%
    07:00 +9°C° 0 mm 3 mps 758 mmHg 77%
    08:00 +11°C° 0 mm 3 mps 758 mmHg 72%
    09:00 +12°C° 0 mm 4 mps 758 mmHg 68%
    10:00 +13°C° 0 mm 5 mps 758 mmHg 67%
    11:00 +13°C° 0 mm 5 mps 758 mmHg 66%
    12:00 +13°C° 0 mm 6 mps 758 mmHg 64%
    13:00 +13°C° 0 mm 6 mps 758 mmHg 66%
    14:00 +11°C° 0 mm 6 mps 757 mmHg 68%
    15:00 +11°C° 0 mm 6 mps 757 mmHg 70%
    16:00 +10°C° 0 mm 6 mps 757 mmHg 73%
    17:00 +10°C° 0 mm 6 mps 756 mmHg 77%
    18:00 +9°C° 0 mm 6 mps 756 mmHg 81%
    19:00 +10°C° 0.1 mm 7 mps 756 mmHg 85%
    20:00 +10°C° 0.1 mm 8 mps 756 mmHg 89%
    21:00 +11°C° 0.1 mm 8 mps 756 mmHg 93%
    22:00 +11°C° 0.1 mm 8 mps 755 mmHg 94%
    23:00 +11°C° 0.1 mm 8 mps 755 mmHg 95%
    Show more